This demonstration page uses our WeatherBlox Daily Observations layout. Learn more.

Left ArrowRight Arrow

Hourly Observations for February 23, 2019

Temp ( °F °C ) Dew Point ( °F °C ) Humidity (%) Winds ( mph kmh ) Pressure ( in mb ) Visibility ( mi km ) Precip ( " mm )
6:30 am 06:30 Cloudy 39 4 28 -2 65 65 SE 5 7 30.12 1020 10 16 N/A
6:50 am 06:50 Cloudy 39 4 30 -1 70 70 ESE 3 6 30.11 1020 10 16 N/A
7:47 am 07:47 Cloudy with Mist and Fog 39 4 30 -1 70 70 E 3 6 30.09 1019 5 8 N/A
8:57 am 08:57 Cloudy 39 4 32 0 75 75 ESE 3 6 30.07 1018 7 11 N/A
9:48 am 09:48 Cloudy 41 5 32 0 70 70 SE 6 9 30.05 1018 7 11 N/A
10:47 am 10:47 Cloudy 43 6 34 1 71 71 SE 8 13 30.04 1017 10 16 N/A
11:47 am 11:47 Cloudy 45 7 37 3 76 76 SE 6 9 30.01 1016 10 16 N/A
12:46 pm 12:46 Cloudy 46 8 37 3 71 71 SE 7 11 29.97 1015 10 16 N/A
1:17 pm 13:17 Cloudy with Light Rain 46 8 39 4 76 76 SE 5 7 29.93 1014 3 4 N/A
1:46 pm 13:46 Cloudy with Light Rain 46 8 41 5 82 82 SE 6 9 29.91 1013 2 3 N/A
2:45 pm 14:45 Cloudy with Mist and Fog 46 8 45 7 93 93 SE 5 7 29.89 1012 5 8 N/A
3:35 pm 15:35 Cloudy 48 9 45 7 87 87 E 5 7 29.85 1011 7 11 N/A
4:45 pm 16:45 Cloudy with Light Rain 48 9 46 8 94 94 S 6 9 29.86 1011 5 8 N/A
5:55 pm 17:55 Cloudy with Light Rain 50 10 46 8 88 88 SSE 18 30 29.79 1009 7 11 N/A
6:25 pm 18:25 Mostly Cloudy 52 11 48 9 88 88 SSE 20 31 29.70 1006 10 16 N/A
6:45 pm 18:45 Mostly Clear 54 12 48 9 82 82 SSE 14 22 29.68 1005 10 16 N/A
7:45 pm 19:45 Partly Cloudy 54 12 50 10 88 88 SE 13 20 29.64 1004 10 16 N/A
8:35 pm 20:35 Mostly Cloudy with Light Rain 54 12 50 10 88 88 S 13 20 29.64 1004 10 16 N/A
8:45 pm 20:45 Cloudy with Light Rain 54 12 50 10 88 88 SSE 12 19 29.61 1003 7 11 N/A
9:50 pm 21:50 Cloudy with Light Rain 54 12 50 10 88 88 S 16 26 29.60 1003 10 16 N/A

Powered by AerisWeather